GW6078 Weather Reports


Display with metric or nautical units.
time (UTC)temp
F
wind
direction
speed
MPH
gust
MPH
rain 1hr
in
rain 24hr
in
rain mn
in
humidity
%
barometer
mb
20260906213749 84 357 8.0 10.0 0.00 0.00 0.00 38 1023.4
20260906213248 83 337 5.0 6.0 0.00 0.00 0.00 38 1023.2
20260906212746 84 14 9.0 9.0 0.00 0.00 0.00 39 1023.3
20260906212242 84 10 7.0 8.0 0.00 0.00 0.00 36 1023.3
20260906211742 83 15 3.0 5.0 0.00 0.00 0.00 40 1023.4
20260906211237 85 33 13.0 16.0 0.00 0.00 0.00 37 1023.3
20260906210732 85 316 9.0 11.0 0.00 0.00 0.00 36 1023.3
20260906210227 84 8 5.0 7.0 0.00 0.00 0.00 38 1023.7
20260906205722 84 20 8.0 9.0 0.00 0.00 0.00 36 1023.4
20260906205219 83 352 7.0 8.0 0.00 0.00 0.00 40 1023.8
20260906204718 85 336 8.0 9.0 0.00 0.00 0.00 36 1023.4
20260906204217 84 324 1.0 1.0 0.00 0.00 0.00 37 1023.7
20260906203717 84 28 12.0 15.0 0.00 0.00 0.00 37 1023.7
20260906203212 85 320 7.0 9.0 0.00 0.00 0.00 38 1023.7
20260906202709 85 16 5.0 6.0 0.00 0.00 0.00 37 1023.8
20260906202208 85 327 5.0 6.0 0.00 0.00 0.00 35 1023.8
20260906201704 85 359 6.0 8.0 0.00 0.00 0.00 38 1023.9
20260906201203 82 347 7.0 8.0 0.00 0.00 0.00 40 1024.2
20260906200659 81 306 6.0 9.0 0.00 0.00 0.00 41 1024.2
20260906200155 84 325 4.0 6.0 0.00 0.00 0.00 38 1024.2
20260906195650 83 331 3.0 3.0 0.00 0.00 0.00 38 1024.1
20260906195146 84 27 8.0 9.0 0.00 0.00 0.00 37 1024.1
20260906194642 84 287 3.0 3.0 0.00 0.00 0.00 36 1024.2
20260906194137 84 293 7.0 9.0 0.00 0.00 0.00 37 1024.1
20260906193632 83 26 5.0 6.0 0.00 0.00 0.00 36 1024.4
20260906193127 84 1 9.0 11.0 0.00 0.00 0.00 36 1024.4
20260906192623 84 336 3.0 5.0 0.00 0.00 0.00 36 1024.4
20260906192122 84 313 7.0 8.0 0.00 0.00 0.00 37 1024.4
20260906191617 82 1 5.0 8.0 0.00 0.00 0.00 36 1024.8
20260906191116 83 10 8.0 10.0 0.00 0.00 0.00 37 1024.7
20260906190617 81 321 4.0 6.0 0.00 0.00 0.00 37 1024.7
20260906190111 82 292 7.0 10.0 0.00 0.00 0.00 37 1024.9
20260906185610 82 347 9.0 11.0 0.00 0.00 0.00 36 1024.7
20260906185109 82 297 3.0 3.0 0.00 0.00 0.00 36 1024.8
20260906184604 82 325 5.0 6.0 0.00 0.00 0.00 37 1025.1
20260906184100 83 326 6.0 9.0 0.00 0.00 0.00 36 1025.1
20260906183555 82 335 3.0 5.0 0.00 0.00 0.00 38 1025.2
20260906183051 82 305 7.0 8.0 0.00 0.00 0.00 37 1025.4
20260906182546 82 359 6.0 8.0 0.00 0.00 0.00 38 1025.4
20260906182042 83 342 3.0 5.0 0.00 0.00 0.00 38 1025.7
20260906181537 83 342 6.0 8.0 0.00 0.00 0.00 37 1025.9
20260906181033 82 9 1.0 1.0 0.00 0.00 0.00 38 1025.8
20260906180528 82 337 7.0 10.0 0.00 0.00 0.00 38 1025.9
20260906180027 82 2 5.0 7.0 0.00 0.00 0.00 38 1025.9
20260906175526 81 4 6.0 9.0 0.00 0.00 0.00 39 1025.7
20260906175026 82 10 7.0 9.0 0.00 0.00 0.00 38 1025.9
20260906174524 80 24 7.0 8.0 0.00 0.00 0.00 39 1026.1
20260906174019 80 44 6.0 7.0 0.00 0.00 0.00 39 1025.7
20260906173514 81 347 4.0 5.0 0.00 0.00 0.00 38 1025.9
20260906173011 81 31 11.0 13.0 0.00 0.00 0.00 38 1025.8
20260906172505 80 35 3.0 5.0 0.00 0.00 0.00 39 1026.2
20260906172000 80 31 7.0 9.0 0.00 0.00 0.00 38 1026.2
20260906171455 80 30 4.0 6.0 0.00 0.00 0.00 39 1026.2
20260906170950 80 356 5.0 7.0 0.00 0.00 0.00 39 1026.4
20260906170446 80 357 3.0 5.0 0.00 0.00 0.00 39 1026.3
20260906165943 80 359 6.0 9.0 0.00 0.00 0.00 39 1026.3
20260906165442 78 304 3.0 3.0 0.00 0.00 0.00 38 1026.4
20260906164937 79 290 2.0 3.0 0.00 0.00 0.00 39 1026.4
20260906164436 79 324 5.0 7.0 0.00 0.00 0.00 38 1026.4
20260906163933 79 345 2.0 2.0 0.00 0.00 0.00 39 1026.4
20260906163428 79 315 2.0 2.0 0.00 0.00 0.00 40 1026.6
20260906162926 78 299 0.0 1.0 0.00 0.00 0.00 40 1026.6
20260906162425 78 301 3.0 5.0 0.00 0.00 0.00 40 1026.4
20260906161921 77 248 2.0 2.0 0.00 0.00 0.00 40 1026.7
20260906161420 78 321 0.0 0.0 0.00 0.00 0.00 40 1026.6
20260906160919 76 246 2.0 2.0 0.00 0.00 0.00 40 1026.6
20260906160418 76 281 2.0 2.0 0.00 0.00 0.00 39 1026.6
20260906155916 76 239 3.0 5.0 0.00 0.00 0.00 40 1026.7
20260906155410 76 246 3.0 3.0 0.00 0.00 0.00 40 1026.3
20260906154907 76 293 4.0 5.0 0.00 0.00 0.00 41 1026.6
20260906154401 75 294 5.0 6.0 0.00 0.00 0.00 42 1026.3
20260906153900 75 264 1.0 1.0 0.00 0.00 0.00 45 1026.4
20260906153359 73 226 2.0 2.0 0.00 0.00 0.00 46 1026.3
20260906152854 72 235 4.0 6.0 0.00 0.00 0.00 46 1026.6
20260906152354 72 251 0.0 1.0 0.00 0.00 0.00 48 1026.3
20260906151854 71 240 3.0 3.0 0.00 0.00 0.00 48 1026.6
20260906151349 71 244 3.0 3.0 0.00 0.00 0.00 49 1026.3
20260906150845 70 224 2.0 2.0 0.00 0.00 0.00 51 1026.4
20260906150340 69 233 3.0 5.0 0.00 0.00 0.00 52 1026.4
20260906145840 69 225 2.0 2.0 0.00 0.00 0.00 52 1026.6
20260906145338 68 248 3.0 3.0 0.00 0.00 0.00 53 1026.6
20260906144833 67 228 3.0 6.0 0.00 0.00 0.00 54 1026.1
20260906144329 67 214 3.0 5.0 0.00 0.00 0.00 54 1026.6
20260906143828 68 220 3.0 5.0 0.00 0.00 0.00 54 1026.4
20260906143325 66 231 1.0 1.0 0.00 0.00 0.00 56 1026.4
20260906142820 66 232 3.0 3.0 0.00 0.00 0.00 56 1026.2
20260906142315 65 228 3.0 3.0 0.00 0.00 0.00 57 1026.1
20260906141815 65 246 3.0 5.0 0.00 0.00 0.00 57 1026.1
20260906141309 65 231 3.0 3.0 0.00 0.00 0.00 57 1026.1
20260906140808 64 232 3.0 3.0 0.00 0.00 0.00 59 1025.9
20260906140303 64 231 3.0 3.0 0.00 0.00 0.00 59 1026.1
20260906135801 64 237 2.0 2.0 0.00 0.00 0.00 60 1026.1
20260906135255 64 232 1.0 2.0 0.00 0.00 0.00 60 1026.1
20260906134751 63 235 3.0 5.0 0.00 0.00 0.00 60 1026.1
20260906134246 63 234 1.0 1.0 0.00 0.00 0.00 61 1026.1
20260906133742 63 234 2.0 3.0 0.00 0.00 0.00 60 1025.6
20260906133237 62 234 1.0 2.0 0.00 0.00 0.00 61 1026.1
20260906132732 61 234 2.0 2.0 0.00 0.00 0.00 62 1025.8
20260906132228 60 234 1.0 2.0 0.00 0.00 0.00 64 1025.8
20260906131723 60 234 1.0 2.0 0.00 0.00 0.00 65 1025.8
20260906131218 59 234 1.0 1.0 0.00 0.00 0.00 66 1025.8
20260906130714 59 234 0.0 1.0 0.00 0.00 0.00 66 1025.9
20260906130209 59 234 1.0 2.0 0.00 0.00 0.00 66 1025.7
20260906125707 58 234 1.0 1.0 0.00 0.00 0.00 67 1025.4
20260906125206 59 234 1.0 1.0 0.00 0.00 0.00 66 1025.8
20260906124701 59 234 1.0 1.0 0.00 0.00 0.00 65 1025.8
20260906124156 59 234 1.0 1.0 0.00 0.00 0.00 66 1025.8
20260906123655 58 234 2.0 3.0 0.00 0.00 0.00 66 1025.7
20260906123151 59 234 1.0 2.0 0.00 0.00 0.00 65 1025.6
20260906122649 59 234 1.0 2.0 0.00 0.00 0.00 66 1025.3
20260906122145 59 234 1.0 1.0 0.00 0.00 0.00 66 1025.6
20260906121642 59 234 0.0 0.0 0.00 0.00 0.00 65 1025.8
20260906121138 59 234 0.0 0.0 0.00 0.00 0.00 66 1025.4
20260906120633 59 234 1.0 1.0 0.00 0.00 0.00 66 1025.7
20260906120131 59 234 1.0 1.0 0.00 0.00 0.00 65 1025.6
20260906115631 60 234 0.0 0.0 0.00 0.00 0.00 64 1025.4
20260906115126 60 234 1.0 1.0 0.00 0.00 0.00 64 1025.4
20260906114625 60 233 1.0 2.0 0.00 0.00 0.00 64 1025.4
20260906114120 60 237 1.0 1.0 0.00 0.00 0.00 64 1025.6
20260906113620 59 237 1.0 1.0 0.00 0.00 0.00 65 1025.6
20260906113120 60 236 0.0 0.0 0.00 0.00 0.00 64 1025.6
20260906112620 60 237 0.0 0.0 0.00 0.00 0.00 64 1025.2
20260906112117 60 237 0.0 0.0 0.00 0.00 0.00 64 1025.6
20260906111616 60 237 0.0 0.0 0.00 0.00 0.00 63 1025.3
20260906111111 60 239 0.0 0.0 0.00 0.00 0.00 63 1025.4
20260906110606 60 236 0.0 0.0 0.00 0.00 0.00 63 1025.1
20260906110106 60 237 0.0 0.0 0.00 0.00 0.00 62 1025.1
20260906105600 60 237 0.0 0.0 0.00 0.00 0.00 62 1024.9
20260906105057 60 236 0.0 0.0 0.00 0.00 0.00 62 1025.2
20260906104555 60 236 0.0 0.0 0.00 0.00 0.00 62 1025.4
20260906104050 61 237 0.0 0.0 0.00 0.00 0.00 61 1025.3
20260906103548 61 239 0.0 0.0 0.00 0.00 0.00 61 1025.2
20260906103043 60 239 0.0 0.0 0.00 0.00 0.00 63 1025.2
20260906102544 59 237 0.0 0.0 0.00 0.00 0.00 63 1025.3
20260906102039 59 237 0.0 0.0 0.00 0.00 0.00 65 1025.4
20260906101539 60 237 0.0 0.0 0.00 0.00 0.00 65 1025.6
20260906101033 60 237 0.0 0.0 0.00 0.00 0.00 64 1025.4
20260906100529 61 239 0.0 0.0 0.00 0.00 0.00 64 1025.4
20260906100030 61 239 0.0 0.0 0.00 0.00 0.00 64 1025.2
20260906095524 61 239 0.0 0.0 0.00 0.00 0.00 64 1025.6
20260906095020 61 239 0.0 0.0 0.00 0.00 0.00 66 1025.4
20260906094518 60 239 0.0 0.0 0.00 0.00 0.00 69 1025.6
20260906094014 60 239 0.0 0.0 0.00 0.00 0.00 70 1025.6
20260906093510 60 236 0.0 0.0 0.00 0.00 0.00 68 1025.7
20260906093010 59 239 0.0 0.0 0.00 0.00 0.00 73 1025.6
20260906092505 60 240 0.0 0.0 0.00 0.00 0.00 73 1025.4
20260906092000 60 240 0.0 0.0 0.00 0.00 0.00 72 1025.7
20260906091456 60 240 0.0 0.0 0.00 0.00 0.00 72 1025.6
20260906090952 60 240 0.0 0.0 0.00 0.00 0.00 73 1025.3
20260906090447 60 239 0.0 0.0 0.00 0.00 0.00 73 1025.3
20260906085947 60 239 0.0 0.0 0.00 0.00 0.00 74 1025.2
20260906085446 60 239 0.0 0.0 0.00 0.00 0.00 73 1025.2
20260906084945 61 237 0.0 0.0 0.00 0.00 0.00 73 1025.4
20260906084440 61 237 0.0 0.0 0.00 0.00 0.00 72 1025.4
20260906083939 61 237 0.0 0.0 0.00 0.00 0.00 71 1025.3
20260906083435 62 238 0.0 0.0 0.00 0.00 0.00 70 1025.4
20260906082934 62 238 0.0 0.0 0.00 0.00 0.00 69 1025.3
20260906082430 62 236 0.0 0.0 0.00 0.00 0.00 70 1025.3
20260906081925 62 236 0.0 0.0 0.00 0.00 0.00 69 1025.4
20260906081421 61 236 0.0 0.0 0.00 0.00 0.00 71 1025.4
20260906080917 62 237 0.0 0.0 0.00 0.00 0.00 73 1025.6
20260906080413 62 237 0.0 0.0 0.00 0.00 0.00 73 1025.8
20260906075912 63 237 0.0 0.0 0.00 0.00 0.00 71 1025.6
20260906075408 63 233 0.0 0.0 0.00 0.00 0.00 70 1025.7
20260906074903 63 237 0.0 0.0 0.00 0.00 0.00 70 1025.6
20260906074402 63 237 0.0 0.0 0.00 0.00 0.00 70 1025.7
20260906073901 63 245 0.0 0.0 0.00 0.00 0.00 72 1025.4
20260906073356 63 244 0.0 0.0 0.00 0.00 0.00 71 1025.7
20260906072853 62 273 0.0 0.0 0.00 0.00 0.00 73 1025.6
20260906072348 61 278 0.0 0.0 0.00 0.00 0.00 76 1025.7
20260906071844 61 278 0.0 0.0 0.00 0.00 0.00 77 1025.8
20260906071339 62 278 0.0 0.0 0.00 0.00 0.00 76 1026.1
20260906070835 62 278 0.0 0.0 0.00 0.00 0.00 77 1025.9
20260906070331 62 278 0.0 0.0 0.00 0.00 0.00 76 1025.7
20260906065826 62 278 0.0 0.0 0.00 0.00 0.00 78 1025.7
20260906065321 61 278 0.0 0.0 0.00 0.00 0.00 78 1025.8
20260906064817 61 278 0.0 0.0 0.00 0.00 0.00 79 1025.9
20260906064313 61 278 0.0 0.0 0.00 0.00 0.00 78 1026.2
20260906063813 62 279 0.0 0.0 0.00 0.00 0.00 78 1025.8
20260906063308 61 279 0.0 0.0 0.00 0.00 0.00 79 1026.1
20260906062803 62 278 0.0 0.0 0.00 0.00 0.00 78 1026.1
20260906062305 62 257 1.0 1.0 0.00 0.00 0.00 77 1026.2
20260906061758 62 256 0.0 0.0 0.00 0.00 0.00 76 1025.8
20260906061254 63 256 1.0 1.0 0.00 0.00 0.00 75 1025.7
20260906060749 63 250 0.0 0.0 0.00 0.00 0.00 75 1025.8
20260906060247 63 220 3.0 3.0 0.00 0.00 0.00 74 1025.6
20260906055742 63 184 5.0 6.0 0.00 0.00 0.00 76 1025.8
20260906055237 64 6 2.0 2.0 0.00 0.00 0.00 72 1025.4
20260906054732 64 6 1.0 1.0 0.00 0.00 0.00 71 1025.4
20260906054228 65 6 2.0 3.0 0.00 0.00 0.00 71 1025.3
20260906053724 65 8 3.0 3.0 0.00 0.00 0.00 71 1025.2
20260906053220 65 1 3.0 3.0 0.00 0.00 0.00 71 1025.3
20260906052715 65 1 2.0 2.0 0.00 0.00 0.00 71 1025.4
20260906052211 65 2 3.0 3.0 0.00 0.00 0.00 71 1025.3
20260906051708 65 355 3.0 5.0 0.00 0.00 0.00 71 1025.3
20260906051207 65 354 3.0 5.0 0.00 0.00 0.00 72 1025.3
20260906050702 65 354 2.0 2.0 0.00 0.00 0.00 71 1025.6
20260906050157 65 350 2.0 2.0 0.00 0.00 0.00 72 1025.7
20260906045655 64 344 3.0 3.0 0.00 0.00 0.00 73 1025.4
20260906045151 64 350 3.0 3.0 0.00 0.00 0.00 73 1025.6
20260906044647 65 350 5.0 6.0 0.00 0.00 0.00 72 1025.7
20260906044142 65 354 5.0 5.0 0.00 0.00 0.00 72 1025.6
20260906043638 66 351 5.0 6.0 0.00 0.00 0.00 71 1025.6
20260906043134 66 348 3.0 3.0 0.00 0.00 0.00 71 1025.8
20260906042633 66 352 5.0 7.0 0.00 0.00 0.00 72 1026.1
20260906042127 66 349 5.0 6.0 0.00 0.00 0.00 72 1025.8
20260906041623 65 349 2.0 2.0 0.00 0.00 0.00 72 1025.9
20260906041118 66 342 3.0 3.0 0.00 0.00 0.00 72 1025.8
20260906040614 66 2 2.0 2.0 0.00 0.00 0.00 72 1025.8
20260906040109 66 356 1.0 1.0 0.00 0.00 0.00 70 1025.8
20260906035604 66 355 2.0 2.0 0.00 0.00 0.00 70 1025.8
20260906035100 67 355 3.0 3.0 0.00 0.00 0.00 70 1025.8
20260906034559 66 2 4.0 5.0 0.00 0.00 0.00 70 1025.9
20260906034054 67 349 1.0 1.0 0.00 0.00 0.00 70 1025.8
20260906033550 67 4 3.0 3.0 0.00 0.00 0.00 69 1026.1
20260906033045 67 8 3.0 3.0 0.00 0.00 0.00 68 1025.9
20260906032541 68 359 2.0 2.0 0.00 0.00 0.00 68 1025.7
20260906032036 68 3 3.0 3.0 0.00 0.00 0.00 67 1025.7
20260906031532 68 355 3.0 3.0 0.00 0.00 0.00 68 1025.8
20260906031027 68 352 3.0 5.0 0.00 0.00 0.00 68 1025.7
20260906030526 68 333 5.0 6.0 0.00 0.00 0.00 67 1025.7
20260906030026 68 343 5.0 6.0 0.00 0.00 0.00 68 1025.4
20260906025526 68 335 3.0 3.0 0.00 0.00 0.00 68 1025.6
20260906025024 68 324 1.0 2.0 0.00 0.00 0.00 68 1025.4
20260906024520 69 323 3.0 3.0 0.00 0.00 0.00 67 1025.2
20260906024019 69 339 4.0 5.0 0.00 0.00 0.00 66 1025.2
20260906023516 69 312 4.0 6.0 0.00 0.00 0.00 65 1025.2
20260906023011 69 315 6.0 8.0 0.00 0.00 0.00 63 1025.3
20260906022506 69 315 6.0 7.0 0.00 0.00 0.00 55 1025.2
20260906022001 68 281 2.0 2.0 0.00 0.00 0.00 45 1024.9
20260906021455 68 179 0.0 0.0 0.00 0.00 0.00 44 1024.8
20260906020950 68 179 0.0 0.0 0.00 0.00 0.00 44 1024.7
20260906020444 68 179 0.0 0.0 0.00 0.00 0.00 45 1024.6
20260906015944 68 179 0.0 0.0 0.00 0.00 0.00 44 1024.7
20260906015443 69 179 0.0 0.0 0.00 0.00 0.00 44 1024.4
20260906014943 69 179 0.0 0.0 0.00 0.00 0.00 43 1024.7
20260906014438 69 179 0.0 0.0 0.00 0.00 0.00 43 1024.3
20260906013934 70 179 0.0 0.0 0.00 0.00 0.00 42 1024.6
20260906013429 70 179 0.0 0.0 0.00 0.00 0.00 42 1024.3
20260906012925 71 179 0.0 0.0 0.00 0.00 0.00 41 1024.2
20260906012425 72 179 0.0 0.0 0.00 0.00 0.00 41 1024.2
20260906011924 73 179 0.0 0.0 0.00 0.00 0.00 40 1024.3
20260906011419 73 179 0.0 0.0 0.00 0.00 0.00 39 1024.7
20260906010915 75 179 0.0 0.0 0.00 0.00 0.00 39 1024.3
20260906010411 75 179 0.0 0.0 0.00 0.00 0.00 37 1024.7
20260906005906 75 178 0.0 0.0 0.00 0.00 0.00 36 1024.7
20260906005406 76 178 1.0 2.0 0.00 0.00 0.00 36 1024.9
20260906004904 76 125 2.0 3.0 0.00 0.00 0.00 36 1024.6
20260906004405 76 165 3.0 3.0 0.00 0.00 0.00 36 1025.1
20260906003900 76 147 1.0 1.0 0.00 0.00 0.00 36 1024.9
20260906003355 76 223 1.0 2.0 0.00 0.00 0.00 36 1024.8
20260906002851 75 214 1.0 1.0 0.00 0.00 0.00 37 1024.7
20260906002350 75 239 0.0 0.0 0.00 0.00 0.00 38 1024.8
20260906001846 75 215 3.0 3.0 0.00 0.00 0.00 39 1024.8
20260906001342 75 183 2.0 2.0 0.00 0.00 0.00 38 1024.8
20260906000836 76 217 0.0 1.0 0.00 0.00 0.00 38 1024.6
20260906000337 76 217 1.0 2.0 0.00 0.00 0.00 37 1024.7
20260905235836 76 218 1.0 1.0 0.00 0.00 0.00 37 1024.8
20260905235331 76 221 2.0 2.0 0.00 0.00 0.00 36 1024.4
20260905234827 78 199 3.0 3.0 0.00 0.00 0.00 35 1024.4
20260905234322 77 134 0.0 0.0 0.00 0.00 0.00 36 1024.9
20260905233817 77 212 2.0 2.0 0.00 0.00 0.00 36 1024.7
20260905233312 78 167 2.0 2.0 0.00 0.00 0.00 35 1024.7
20260905232811 79 93 2.0 2.0 0.00 0.00 0.00 34 1024.4
20260905232307 79 270 0.0 0.0 0.00 0.00 0.00 32 1024.6
20260905231803 81 270 0.0 1.0 0.00 0.00 0.00 31 1024.3
20260905231258 81 264 0.0 2.0 0.00 0.00 0.00 32 1024.4
20260905230754 79 227 0.0 1.0 0.00 0.00 0.00 33 1024.6
20260905230252 79 174 0.0 0.0 0.00 0.00 0.00 34 1024.4
20260905225751 81 160 3.0 5.0 0.00 0.00 0.00 32 1024.4
20260905225246 80 80 1.0 1.0 0.00 0.00 0.00 32 1024.2
20260905224745 80 271 0.0 0.0 0.00 0.00 0.00 32 1024.4
20260905224242 81 120 2.0 3.0 0.00 0.00 0.00 32 1024.4
20260905223737 77 273 0.0 1.0 0.00 0.00 0.00 36 1024.4
20260905223234 77 273 2.0 2.0 0.00 0.00 0.00 36 1024.6
20260905222729 77 31 0.0 0.0 0.00 0.00 0.00 39 1024.6
20260905222228 77 1 4.0 5.0 0.00 0.00 0.00 37 1025.1
20260905221724 77 66 5.0 6.0 0.00 0.00 0.00 35 1024.8
20260905221221 77 312 1.0 1.0 0.00 0.00 0.00 34 1024.8
20260905220717 77 51 5.0 6.0 0.00 0.00 0.00 34 1025.1
20260905220213 78 7 1.0 2.0 0.00 0.00 0.00 35 1025.1
20260905215712 78 78 1.0 1.0 0.00 0.00 0.00 35 1025.1
20260905215208 77 79 0.0 0.0 0.00 0.00 0.00 35 1024.9
20260905214704 77 155 2.0 2.0 0.00 0.00 0.00 35 1024.9
20260905214158 78 224 1.0 2.0 0.00 0.00 0.00 34 1025.3